Station Historical Data
Daily Summary for January 6, 2012 Units:  English    Metric   Both
« Previous Day
Next Day »
Daily Weekly Monthly Yearly Custom
  High: Low: Average:
Temperature: 64.5 °F 34.3 °F 49.7 °F
Dew Point: 53.1 °F 30.8 °F 41.5 °F
Humidity: 89% 53% 74%
Wind Speed: 14.0mph 0.0mph 3.9mph
Wind Gust: 19.0mph - -
Wind- - South
Pressure: 30.14 in 29.97 in -
Precipitation: 0.00 in    
Historical Graphs
 
 
Tabular Data for January 6, 2012
Time Temperature Dew Point Pressure Wind Wind Speed Wind Gust Humidity Rainfall Rate (Hourly) Conditions
00:00 43.9 °F 31.7 °F 30.10 in SSE 2.0 mph 6.0 mph 62% 0.00 in
00:01 44.0 °F 31.8 °F 30.10 in SSW 3.0 mph 6.0 mph 62% 0.00 in
00:06 44.2 °F 31.6 °F 30.10 in South 3.0 mph 4.0 mph 61% 0.00 in
00:11 44.2 °F 32.0 °F 30.09 in SSW 1.0 mph 5.0 mph 62% 0.00 in
00:16 44.2 °F 32.0 °F 30.09 in South 2.0 mph 4.0 mph 62% 0.00 in
00:21 44.2 °F 32.0 °F 30.09 in SSE 2.0 mph 4.0 mph 62% 0.00 in
00:26 44.0 °F 31.8 °F 30.09 in SSW 1.0 mph 4.0 mph 62% 0.00 in
00:31 43.7 °F 32.0 °F 30.09 in SSW 2.0 mph 3.0 mph 63% 0.00 in
00:36 43.3 °F 31.6 °F 30.09 in WSW 2.0 mph 3.0 mph 63% 0.00 in
00:41 42.7 °F 31.4 °F 30.09 in SSW 2.0 mph 3.0 mph 64% 0.00 in
00:46 42.4 °F 31.5 °F 30.09 in SSW 1.0 mph 2.0 mph 65% 0.00 in
00:51 42.1 °F 31.6 °F 30.09 in SSW 1.0 mph 2.0 mph 66% 0.00 in
00:56 41.8 °F 31.3 °F 30.09 in SSW 1.0 mph 2.0 mph 66% 0.00 in
01:00 41.7 °F 31.6 °F 30.09 in South 1.0 mph 2.0 mph 67% 0.00 in
01:01 41.7 °F 31.6 °F 30.09 in South 1.0 mph 2.0 mph 67% 0.00 in
01:06 41.6 °F 31.5 °F 30.09 in Calm   2.0 mph 67% 0.00 in
01:11 41.3 °F 31.2 °F 30.09 in Calm   1.0 mph 67% 0.00 in
01:16 41.0 °F 31.3 °F 30.09 in SW 1.0 mph 1.0 mph 68% 0.00 in
01:21 40.7 °F 31.3 °F 30.09 in Calm   1.0 mph 69% 0.00 in
01:26 40.5 °F 31.5 °F 30.09 in SSE 2.0 mph 2.0 mph 70% 0.00 in
01:30 40.7 °F 31.7 °F 30.08 in South 2.0 mph 2.0 mph 70% 0.00 in
01:31 40.7 °F 31.7 °F 30.08 in South 1.0 mph 2.0 mph 70% 0.00 in
01:36 40.9 °F 31.9 °F 30.08 in SE 1.0 mph 2.0 mph 70% 0.00 in
01:41 41.1 °F 32.1 °F 30.08 in South 1.0 mph 2.0 mph 70% 0.00 in
01:46 41.3 °F 32.3 °F 30.08 in South 1.0 mph 3.0 mph 70% 0.00 in
01:51 41.4 °F 32.0 °F 30.08 in SE 2.0 mph 2.0 mph 69% 0.00 in
01:56 41.3 °F 32.3 °F 30.08 in SSE 2.0 mph 3.0 mph 70% 0.00 in
02:00 41.4 °F 32.4 °F 30.08 in SSE 3.0 mph 3.0 mph 70% 0.00 in
02:01 41.4 °F 32.4 °F 30.08 in SSE 3.0 mph 3.0 mph 70% 0.00 in
02:06 41.3 °F 32.3 °F 30.08 in ESE 3.0 mph 3.0 mph 70% 0.00 in
02:11 41.3 °F 32.3 °F 30.08 in SSE 2.0 mph 3.0 mph 70% 0.00 in
02:16 41.2 °F 32.2 °F 30.08 in SSE 3.0 mph 3.0 mph 70% 0.00 in
02:21 41.1 °F 32.4 °F 30.08 in SSE 2.0 mph 4.0 mph 71% 0.00 in
02:26 40.7 °F 32.0 °F 30.08 in South 2.0 mph 3.0 mph 71% 0.00 in
02:30 40.6 °F 32.0 °F 30.08 in SSE 1.0 mph 2.0 mph 71% 0.00 in
02:31 40.5 °F 32.2 °F 30.08 in SSE 1.0 mph 2.0 mph 72% 0.00 in
02:36 40.3 °F 32.0 °F 30.07 in SSE 2.0 mph 2.0 mph 72% 0.00 in
02:41 40.1 °F 32.2 °F 30.08 in SSE 2.0 mph 3.0 mph 73% 0.00 in
02:46 40.1 °F 32.2 °F 30.08 in SE 2.0 mph 3.0 mph 73% 0.00 in
02:51 40.2 °F 32.2 °F 30.08 in SE 2.0 mph 2.0 mph 73% 0.00 in
02:56 40.2 °F 32.2 °F 30.08 in SE 1.0 mph 2.0 mph 73% 0.00 in
03:00 39.9 °F 32.3 °F 30.08 in SE 1.0 mph 2.0 mph 74% 0.00 in
03:01 39.9 °F 32.3 °F 30.08 in SE 2.0 mph 2.0 mph 74% 0.00 in
03:06 39.6 °F 32.0 °F 30.07 in SE 1.0 mph 1.0 mph 74% 0.00 in
03:11 39.5 °F 32.2 °F 30.07 in SE 1.0 mph 1.0 mph 75% 0.00 in
03:16 39.4 °F 32.2 °F 30.07 in ESE 1.0 mph 2.0 mph 75% 0.00 in
03:21 39.2 °F 32.0 °F 30.07 in SE 1.0 mph 2.0 mph 75% 0.00 in
03:26 38.7 °F 31.8 °F 30.07 in SE 1.0 mph 2.0 mph 76% 0.00 in
03:30 38.4 °F 31.8 °F 30.07 in SE 2.0 mph 2.0 mph 77% 0.00 in
03:31 38.4 °F 31.8 °F 30.07 in SE 2.0 mph 2.0 mph 77% 0.00 in
03:37 38.3 °F 31.7 °F 30.07 in South 3.0 mph 3.0 mph 77% 0.00 in
03:42 38.2 °F 31.6 °F 30.07 in SSE 3.0 mph 4.0 mph 77% 0.00 in
03:47 37.6 °F 31.4 °F 30.07 in SSE 2.0 mph 3.0 mph 78% 0.00 in
03:52 37.2 °F 31.3 °F 30.07 in SE 2.0 mph 2.0 mph 79% 0.00 in
03:57 37.0 °F 31.4 °F 30.07 in SSE 1.0 mph 3.0 mph 80% 0.00 in
04:00 36.9 °F 31.3 °F 30.07 in SE 2.0 mph 2.0 mph 80% 0.00 in
04:02 36.9 °F 31.3 °F 30.07 in SSE 1.0 mph 2.0 mph 80% 0.00 in
04:07 36.9 °F 31.6 °F 30.07 in SE 2.0 mph 3.0 mph 81% 0.00 in
04:12 37.4 °F 32.1 °F 30.07 in SE 3.0 mph 4.0 mph 81% 0.00 in
04:17 37.7 °F 31.8 °F 30.07 in ESE 3.0 mph 3.0 mph 79% 0.00 in
04:22 37.8 °F 31.9 °F 30.07 in ESE 2.0 mph 3.0 mph 79% 0.00 in
04:27 37.4 °F 31.5 °F 30.07 in East 3.0 mph 3.0 mph 79% 0.00 in
04:30 37.2 °F 31.6 °F 30.06 in ESE 2.0 mph 3.0 mph 80% 0.00 in
04:33 37.1 °F 31.5 °F 30.06 in ESE 2.0 mph 3.0 mph 80% 0.00 in
04:38 36.7 °F 31.4 °F 30.07 in ESE 3.0 mph 4.0 mph 81% 0.00 in
04:43 36.7 °F 31.4 °F 30.07 in East 2.0 mph 4.0 mph 81% 0.00 in
04:48 36.5 °F 31.2 °F 30.07 in East 2.0 mph 3.0 mph 81% 0.00 in
04:53 36.3 °F 31.3 °F 30.07 in Calm   2.0 mph 82% 0.00 in
04:58 36.3 °F 31.3 °F 30.07 in East 1.0 mph 1.0 mph 82% 0.00 in
05:00 36.3 °F 31.3 °F 30.07 in Calm   2.0 mph 82% 0.00 in
05:03 36.3 °F 31.3 °F 30.07 in Calm   2.0 mph 82% 0.00 in
05:08 36.3 °F 31.3 °F 30.07 in Calm   2.0 mph 82% 0.00 in
05:13 36.1 °F 31.1 °F 30.07 in Calm   1.0 mph 82% 0.00 in
05:18 35.9 °F 31.2 °F 30.07 in Calm   1.0 mph 83% 0.00 in
05:23 35.7 °F 31.4 °F 30.07 in ESE 1.0 mph 1.0 mph 84% 0.00 in
05:28 35.7 °F 31.4 °F 30.07 in Calm   1.0 mph 84% 0.00 in
05:30 35.5 °F 31.1 °F 30.07 in ENE 1.0 mph 1.0 mph 84% 0.00 in
05:33 35.5 °F 31.1 °F 30.08 in East 1.0 mph 1.0 mph 84% 0.00 in
05:38 35.2 °F 30.9 °F 30.08 in Calm   1.0 mph 84% 0.00 in
05:43 34.9 °F 30.9 °F 30.08 in Calm   1.0 mph 85% 0.00 in
05:48 34.6 °F 30.9 °F 30.08 in East 1.0 mph 1.0 mph 86% 0.00 in
05:53 34.4 °F 30.9 °F 30.08 in East 1.0 mph 1.0 mph 87% 0.00 in
05:58 34.4 °F 30.9 °F 30.09 in ESE 2.0 mph 2.0 mph 87% 0.00 in
06:00 34.3 °F 30.8 °F 30.09 in ESE 2.0 mph 2.0 mph 87% 0.00 in
06:03 34.3 °F 30.8 °F 30.08 in East 2.0 mph 3.0 mph 87% 0.00 in
06:08 34.3 °F 30.8 °F 30.09 in East 2.0 mph 3.0 mph 87% 0.00 in
06:13 34.3 °F 31.1 °F 30.09 in ESE 2.0 mph 2.0 mph 88% 0.00 in
06:18 34.4 °F 31.2 °F 30.09 in ESE 2.0 mph 3.0 mph 88% 0.00 in
06:23 34.6 °F 31.4 °F 30.09 in ESE 3.0 mph 3.0 mph 88% 0.00 in
06:28 34.7 °F 31.2 °F 30.09 in ESE 2.0 mph 4.0 mph 87% 0.00 in
06:30 34.6 °F 31.1 °F 30.10 in ESE 2.0 mph 3.0 mph 87% 0.00 in
06:33 34.6 °F 31.1 °F 30.10 in ESE 2.0 mph 3.0 mph 87% 0.00 in
06:38 34.6 °F 31.4 °F 30.10 in ESE 3.0 mph 3.0 mph 88% 0.00 in
06:43 34.9 °F 31.7 °F 30.10 in SE 3.0 mph 3.0 mph 88% 0.00 in
06:48 35.3 °F 31.8 °F 30.10 in ESE 2.0 mph 4.0 mph 87% 0.00 in
06:53 35.5 °F 32.0 °F 30.10 in ESE 3.0 mph 4.0 mph 87% 0.00 in
06:58 35.5 °F 32.0 °F 30.10 in ESE 5.0 mph 5.0 mph 87% 0.00 in
07:00 35.5 °F 31.7 °F 30.10 in ESE 4.0 mph 5.0 mph 86% 0.00 in
07:03 35.5 °F 31.7 °F 30.10 in ESE 4.0 mph 5.0 mph 86% 0.00 in
07:08 35.1 °F 31.3 °F 30.10 in ESE 3.0 mph 5.0 mph 86% 0.00 in
07:13 34.9 °F 31.4 °F 30.10 in ESE 3.0 mph 4.0 mph 87% 0.00 in
07:18 35.1 °F 31.6 °F 30.10 in ESE 2.0 mph 4.0 mph 87% 0.00 in
07:23 35.2 °F 31.4 °F 30.10 in ESE 4.0 mph 5.0 mph 86% 0.00 in
07:29 35.3 °F 31.5 °F 30.10 in ESE 3.0 mph 5.0 mph 86% 0.00 in
07:30 35.2 °F 31.4 °F 30.10 in East 4.0 mph 4.0 mph 86% 0.00 in
07:34 35.0 °F 31.2 °F 30.10 in ESE 3.0 mph 4.0 mph 86% 0.00 in
07:39 34.9 °F 31.4 °F 30.10 in ESE 3.0 mph 4.0 mph 87% 0.00 in
07:44 34.6 °F 31.1 °F 30.10 in ESE 3.0 mph 4.0 mph 87% 0.00 in
07:49 34.8 °F 31.6 °F 30.11 in ESE 3.0 mph 4.0 mph 88% 0.00 in
07:54 34.8 °F 31.3 °F 30.11 in ESE 2.0 mph 3.0 mph 87% 0.00 in
07:59 34.7 °F 31.2 °F 30.11 in ESE 2.0 mph 3.0 mph 87% 0.00 in
08:00 34.8 °F 31.6 °F 30.11 in ESE 2.0 mph 3.0 mph 88% 0.00 in
08:04 34.8 °F 31.6 °F 30.11 in ESE 2.0 mph 3.0 mph 88% 0.00 in
08:09 34.8 °F 31.3 °F 30.11 in ESE 2.0 mph 2.0 mph 87% 0.00 in
08:14 34.9 °F 31.7 °F 30.11 in ESE 2.0 mph 2.0 mph 88% 0.00 in
08:19 35.2 °F 31.7 °F 30.11 in ESE 2.0 mph 3.0 mph 87% 0.00 in
08:24 35.7 °F 32.2 °F 30.12 in ESE 3.0 mph 3.0 mph 87% 0.00 in
08:29 36.5 °F 32.7 °F 30.12 in SE 2.0 mph 4.0 mph 86% 0.00 in
08:30 36.8 °F 32.7 °F 30.12 in SE 2.0 mph 4.0 mph 85% 0.00 in
08:34 37.0 °F 32.6 °F 30.12 in SE 2.0 mph 2.0 mph 84% 0.00 in
08:39 37.3 °F 32.9 °F 30.12 in SE 2.0 mph 4.0 mph 84% 0.00 in
08:44 37.7 °F 33.0 °F 30.12 in SE 3.0 mph 3.0 mph 83% 0.00 in
08:49 38.3 °F 33.6 °F 30.12 in SSE 3.0 mph 4.0 mph 83% 0.00 in
08:54 38.7 °F 33.7 °F 30.12 in South 2.0 mph 4.0 mph 82% 0.00 in
08:59 39.2 °F 34.2 °F 30.12 in SSE 3.0 mph 3.0 mph 82% 0.00 in
09:00 39.3 °F 34.0 °F 30.12 in SSE 1.0 mph 3.0 mph 81% 0.00 in
09:04 39.7 °F 34.4 °F 30.13 in SE 3.0 mph 3.0 mph 81% 0.00 in
09:09 40.1 °F 34.4 °F 30.13 in SE 3.0 mph 4.0 mph 80% 0.00 in
09:14 40.6 °F 34.9 °F 30.13 in SSE 2.0 mph 4.0 mph 80% 0.00 in
09:19 41.1 °F 35.1 °F 30.13 in SSE 5.0 mph 6.0 mph 79% 0.00 in
09:24 41.5 °F 35.5 °F 30.13 in SSE 4.0 mph 6.0 mph 79% 0.00 in
09:29 41.8 °F 35.5 °F 30.13 in SSE 4.0 mph 6.0 mph 78% 0.00 in
09:30 41.9 °F 35.5 °F 30.13 in SE 4.0 mph 6.0 mph 78% 0.00 in
09:34 42.2 °F 35.8 °F 30.13 in SE 4.0 mph 6.0 mph 78% 0.00 in
09:39 42.7 °F 36.0 °F 30.13 in SSE 4.0 mph 7.0 mph 77% 0.00 in
09:44 43.4 °F 36.7 °F 30.13 in SE 6.0 mph 7.0 mph 77% 0.00 in
09:49 43.9 °F 36.5 °F 30.13 in SSE 6.0 mph 8.0 mph 75% 0.00 in
09:54 44.3 °F 37.2 °F 30.14 in SE 4.0 mph 7.0 mph 76% 0.00 in
09:59 44.7 °F 36.9 °F 30.14 in SE 4.0 mph 5.0 mph 74% 0.00 in
10:00 44.7 °F 36.9 °F 30.14 in SE 4.0 mph 6.0 mph 74% 0.00 in
10:04 44.9 °F 37.1 °F 30.14 in SSE 6.0 mph 7.0 mph 74% 0.00 in
10:09 45.3 °F 37.2 °F 30.14 in ESE 4.0 mph 6.0 mph 73% 0.00 in
10:14 45.7 °F 37.5 °F 30.14 in SSE 4.0 mph 6.0 mph 73% 0.00 in
10:20 46.2 °F 37.3 °F 30.14 in SSE 4.0 mph 8.0 mph 71% 0.00 in
10:25 46.7 °F 37.8 °F 30.14 in SSE 6.0 mph 7.0 mph 71% 0.00 in
10:30 46.9 °F 37.6 °F 30.14 in South 5.0 mph 7.0 mph 70% 0.00 in
10:35 47.7 °F 38.4 °F 30.14 in SSE 2.0 mph 4.0 mph 70% 0.00 in
10:40 48.5 °F 38.4 °F 30.14 in SW 5.0 mph 7.0 mph 68% 0.00 in
10:45 49.2 °F 38.7 °F 30.13 in SE 6.0 mph 6.0 mph 67% 0.00 in
10:50 49.8 °F 38.5 °F 30.13 in SSW 8.0 mph 11.0 mph 65% 0.00 in
10:55 50.6 °F 39.3 °F 30.13 in SSW 5.0 mph 8.0 mph 65% 0.00 in
11:00 51.2 °F 39.5 °F 30.13 in SSW 6.0 mph 9.0 mph 64% 0.00 in
11:05 51.9 °F 39.3 °F 30.13 in SSW 7.0 mph 8.0 mph 62% 0.00 in
11:10 52.5 °F 39.9 °F 30.12 in South 4.0 mph 6.0 mph 62% 0.00 in
11:15 52.8 °F 39.7 °F 30.12 in WSW 3.0 mph 9.0 mph 61% 0.00 in
11:20 53.4 °F 39.9 °F 30.12 in SSW 3.0 mph 8.0 mph 60% 0.00 in
11:25 53.7 °F 40.2 °F 30.12 in SW 5.0 mph 7.0 mph 60% 0.00 in
11:30 53.9 °F 40.3 °F 30.11 in SSW 7.0 mph 11.0 mph 60% 0.00 in
11:35 54.2 °F 40.6 °F 30.11 in SSE 4.0 mph 8.0 mph 60% 0.00 in
11:40 54.8 °F 40.3 °F 30.11 in South 2.0 mph 6.0 mph 58% 0.00 in
11:45 54.9 °F 40.0 °F 30.10 in West 3.0 mph 9.0 mph 57% 0.00 in
11:50 55.6 °F 41.5 °F 30.10 in SW 3.0 mph 4.0 mph 59% 0.00 in
11:55 56.2 °F 41.2 °F 30.10 in South 7.0 mph 8.0 mph 57% 0.00 in
12:00 56.3 °F 40.8 °F 30.09 in SSW 6.0 mph 7.0 mph 56% 0.00 in
12:05 56.7 °F 41.7 °F 30.09 in South 3.0 mph 7.0 mph 57% 0.00 in
12:10 57.3 °F 41.3 °F 30.09 in SW 6.0 mph 9.0 mph 55% 0.00 in
12:15 57.5 °F 41.0 °F 30.08 in SW 6.0 mph 10.0 mph 54% 0.00 in
12:20 57.8 °F 41.8 °F 30.08 in SW 4.0 mph 6.0 mph 55% 0.00 in
12:25 58.5 °F 41.9 °F 30.08 in SSW 7.0 mph 9.0 mph 54% 0.00 in
12:30 58.6 °F 42.0 °F 30.07 in SSW 4.0 mph 8.0 mph 54% 0.00 in
12:31 58.6 °F 42.0 °F 30.07 in South 5.0 mph 8.0 mph 54% 0.00 in
12:36 59.1 °F 42.0 °F 30.07 in SSW 7.0 mph 9.0 mph 53% 0.00 in
12:41 59.0 °F 41.9 °F 30.06 in SSW 4.0 mph 8.0 mph 53% 0.00 in
12:46 59.6 °F 43.0 °F 30.06 in South 4.0 mph 7.0 mph 54% 0.00 in
12:51 59.9 °F 44.2 °F 30.06 in SSW 6.0 mph 6.0 mph 56% 0.00 in
12:56 60.9 °F 45.1 °F 30.05 in SSW 6.0 mph 10.0 mph 56% 0.00 in
13:00 61.5 °F 45.7 °F 30.05 in West 9.0 mph 10.0 mph 56% 0.00 in
13:01 61.5 °F 45.7 °F 30.05 in West 9.0 mph 10.0 mph 56% 0.00 in
13:06 61.6 °F 46.7 °F 30.05 in SW 8.0 mph 13.0 mph 58% 0.00 in
13:11 61.7 °F 46.3 °F 30.04 in West 11.0 mph 12.0 mph 57% 0.00 in
13:16 61.9 °F 47.0 °F 30.04 in SW 8.0 mph 10.0 mph 58% 0.00 in
13:21 61.8 °F 46.9 °F 30.03 in South 6.0 mph 11.0 mph 58% 0.00 in
13:26 61.8 °F 47.3 °F 30.03 in SW 9.0 mph 14.0 mph 59% 0.00 in
13:30 61.8 °F 46.9 °F 30.03 in SSW 10.0 mph 12.0 mph 58% 0.00 in
13:31 61.8 °F 46.9 °F 30.03 in SSW 10.0 mph 12.0 mph 58% 0.00 in
13:36 62.2 °F 47.3 °F 30.03 in SW 7.0 mph 10.0 mph 58% 0.00 in
13:41 62.2 °F 46.8 °F 30.02 in SSW 9.0 mph 14.0 mph 57% 0.00 in
13:46 62.4 °F 47.9 °F 30.02 in SSW 7.0 mph 10.0 mph 59% 0.00 in
13:51 62.5 °F 47.1 °F 30.02 in SW 8.0 mph 13.0 mph 57% 0.00 in
13:56 62.7 °F 47.3 °F 30.02 in South 10.0 mph 10.0 mph 57% 0.00 in
14:00 63.3 °F 47.8 °F 30.02 in SW 10.0 mph 10.0 mph 57% 0.00 in
14:01 63.2 °F 47.7 °F 30.02 in SW 8.0 mph 10.0 mph 57% 0.00 in
14:06 63.6 °F 49.0 °F 30.01 in WSW 10.0 mph 16.0 mph 59% 0.00 in
14:11 63.7 °F 49.6 °F 30.01 in SSW 11.0 mph 13.0 mph 60% 0.00 in
14:16 63.8 °F 49.7 °F 30.01 in SW 8.0 mph 15.0 mph 60% 0.00 in
14:21 63.8 °F 49.7 °F 30.01 in SSW 8.0 mph 15.0 mph 60% 0.00 in
14:26 63.9 °F 50.2 °F 30.00 in WSW 7.0 mph 11.0 mph 61% 0.00 in
14:30 64.0 °F 49.8 °F 30.00 in SW 8.0 mph 17.0 mph 60% 0.00 in
14:31 64.1 °F 50.4 °F 30.00 in WSW 9.0 mph 17.0 mph 61% 0.00 in
14:36 64.0 °F 50.3 °F 30.00 in WSW 8.0 mph 15.0 mph 61% 0.00 in
14:41 64.1 °F 50.8 °F 30.00 in WSW 13.0 mph 13.0 mph 62% 0.00 in
14:46 64.0 °F 50.7 °F 30.00 in SSW 5.0 mph 12.0 mph 62% 0.00 in
14:51 63.8 °F 50.5 °F 30.00 in SW 10.0 mph 17.0 mph 62% 0.00 in
14:56 64.0 °F 50.7 °F 30.00 in SW 8.0 mph 11.0 mph 62% 0.00 in
15:00 64.3 °F 51.0 °F 29.99 in SSW 4.0 mph 11.0 mph 62% 0.00 in
15:01 64.3 °F 51.5 °F 29.99 in SW 5.0 mph 10.0 mph 63% 0.00 in
15:06 64.3 °F 51.0 °F 29.99 in SW 11.0 mph 13.0 mph 62% 0.00 in
15:11 64.0 °F 51.2 °F 29.99 in South 7.0 mph 18.0 mph 63% 0.00 in
15:16 63.8 °F 51.4 °F 29.99 in SSW 9.0 mph 11.0 mph 64% 0.00 in
15:21 63.9 °F 51.1 °F 29.99 in SW 14.0 mph 14.0 mph 63% 0.00 in
15:26 63.6 °F 51.2 °F 29.98 in WSW 9.0 mph 19.0 mph 64% 0.00 in
15:30 63.8 °F 51.4 °F 29.99 in WSW 7.0 mph 11.0 mph 64% 0.00 in
15:31 63.8 °F 51.4 °F 29.99 in West 7.0 mph 15.0 mph 64% 0.00 in
15:36 64.1 °F 51.7 °F 29.98 in WSW 6.0 mph 15.0 mph 64% 0.00 in
15:41 64.2 °F 51.8 °F 29.98 in SW 13.0 mph 15.0 mph 64% 0.00 in
15:46 64.1 °F 51.7 °F 29.98 in SW 12.0 mph 14.0 mph 64% 0.00 in
15:51 64.1 °F 51.7 °F 29.98 in WSW 5.0 mph 15.0 mph 64% 0.00 in
15:56 64.3 °F 51.9 °F 29.98 in SW 6.0 mph 10.0 mph 64% 0.00 in
16:00 64.5 °F 52.1 °F 29.98 in SSW 7.0 mph 13.0 mph 64% 0.00 in
16:01 64.5 °F 52.1 °F 29.98 in SW 5.0 mph 13.0 mph 64% 0.00 in
16:07 64.3 °F 51.9 °F 29.98 in SSW 9.0 mph 11.0 mph 64% 0.00 in
16:12 64.2 °F 52.2 °F 29.98 in South 7.0 mph 10.0 mph 65% 0.00 in
16:17 64.4 °F 52.4 °F 29.98 in SW 6.0 mph 11.0 mph 65% 0.00 in
16:22 64.5 °F 52.5 °F 29.98 in SW 4.0 mph 9.0 mph 65% 0.00 in
16:27 64.3 °F 52.3 °F 29.98 in SSW 7.0 mph 16.0 mph 65% 0.00 in
16:30 64.1 °F 52.5 °F 29.98 in SSW 6.0 mph 13.0 mph 66% 0.00 in
16:32 64.0 °F 52.4 °F 29.98 in SW 10.0 mph 11.0 mph 66% 0.00 in
16:37 63.7 °F 52.5 °F 29.98 in SW 8.0 mph 12.0 mph 67% 0.00 in
16:42 63.4 °F 52.3 °F 29.98 in SSW 5.0 mph 9.0 mph 67% 0.00 in
16:47 63.2 °F 52.5 °F 29.98 in SSW 7.0 mph 11.0 mph 68% 0.00 in
16:52 63.1 °F 52.8 °F 29.98 in SW 3.0 mph 12.0 mph 69% 0.00 in
16:57 62.9 °F 52.6 °F 29.99 in South 5.0 mph 10.0 mph 69% 0.00 in
17:00 62.7 °F 52.4 °F 29.99 in SSW 5.0 mph 7.0 mph 69% 0.00 in
17:02 62.8 °F 52.9 °F 29.99 in South 2.0 mph 5.0 mph 70% 0.00 in
17:07 62.7 °F 52.8 °F 29.99 in SW 6.0 mph 6.0 mph 70% 0.00 in
17:12 62.6 °F 52.7 °F 29.99 in SW 3.0 mph 5.0 mph 70% 0.00 in
17:17 62.6 °F 52.7 °F 29.99 in SSW 5.0 mph 6.0 mph 70% 0.00 in
17:22 62.8 °F 52.9 °F 29.99 in SW 6.0 mph 8.0 mph 70% 0.00 in
17:23 62.8 °F 52.9 °F 29.99 in SSW 6.0 mph 9.0 mph 70% 0.00 in
17:27 63.0 °F 53.1 °F 29.99 in SSW 4.0 mph 10.0 mph 70% 0.00 in
17:30 63.0 °F 53.1 °F 29.99 in South 7.0 mph 8.0 mph 70% 0.00 in
17:33 63.0 °F 53.1 °F 29.99 in SSW 11.0 mph 13.0 mph 70% 0.00 in
17:38 63.1 °F 52.8 °F 29.99 in SSW 6.0 mph 10.0 mph 69% 0.00 in
17:43 62.9 °F 53.0 °F 29.99 in South 4.0 mph 11.0 mph 70% 0.00 in
17:48 62.5 °F 52.6 °F 29.99 in SSW 4.0 mph 11.0 mph 70% 0.00 in
17:53 61.8 °F 52.3 °F 29.99 in WSW 3.0 mph 7.0 mph 71% 0.00 in
17:58 61.5 °F 52.4 °F 29.99 in South 3.0 mph 8.0 mph 72% 0.00 in
18:00 61.1 °F 52.0 °F 29.99 in SW 3.0 mph 5.0 mph 72% 0.00 in
18:03 61.0 °F 51.9 °F 29.99 in SW 2.0 mph 6.0 mph 72% 0.00 in
18:08 60.4 °F 51.7 °F 29.99 in SW 2.0 mph 5.0 mph 73% 0.00 in
18:13 59.9 °F 52.0 °F 29.99 in South 4.0 mph 4.0 mph 75% 0.00 in
18:18 60.0 °F 52.1 °F 29.99 in SW 4.0 mph 5.0 mph 75% 0.00 in
18:23 59.7 °F 51.8 °F 29.99 in SSW 2.0 mph 5.0 mph 75% 0.00 in
18:28 59.3 °F 51.8 °F 29.99 in SSW 2.0 mph 6.0 mph 76% 0.00 in
18:33 59.2 °F 52.0 °F 29.99 in SSW 2.0 mph 4.0 mph 77% 0.00 in
18:38 59.2 °F 51.7 °F 29.99 in WSW 3.0 mph 6.0 mph 76% 0.00 in
18:43 59.0 °F 51.8 °F 29.99 in South 4.0 mph 4.0 mph 77% 0.00 in
18:48 59.1 °F 51.5 °F 29.99 in SSW 4.0 mph 4.0 mph 76% 0.00 in
18:53 59.0 °F 51.8 °F 29.99 in South 2.0 mph 3.0 mph 77% 0.00 in
18:58 58.7 °F 51.5 °F 29.99 in SSW 2.0 mph 4.0 mph 77% 0.00 in
19:03 58.5 °F 51.7 °F 29.99 in SSW 5.0 mph 5.0 mph 78% 0.00 in
19:08 58.6 °F 51.8 °F 29.99 in South 2.0 mph 5.0 mph 78% 0.00 in
19:13 58.5 °F 51.7 °F 29.99 in South 3.0 mph 5.0 mph 78% 0.00 in
19:18 58.3 °F 51.5 °F 29.99 in SSW 3.0 mph 4.0 mph 78% 0.00 in
19:23 58.2 °F 51.7 °F 29.99 in South 2.0 mph 4.0 mph 79% 0.00 in
19:28 58.0 °F 51.5 °F 29.99 in South 3.0 mph 4.0 mph 79% 0.00 in
19:33 57.7 °F 51.2 °F 29.98 in SSE 3.0 mph 4.0 mph 79% 0.00 in
19:38 57.0 °F 50.6 °F 29.98 in SSE 2.0 mph 4.0 mph 79% 0.00 in
19:43 56.8 °F 51.0 °F 29.98 in SSE 2.0 mph 4.0 mph 81% 0.00 in
19:48 56.6 °F 51.2 °F 29.98 in SSE 3.0 mph 4.0 mph 82% 0.00 in
19:53 56.7 °F 51.3 °F 29.98 in SSW 2.0 mph 3.0 mph 82% 0.00 in
19:58 56.8 °F 51.4 °F 29.98 in SSW 3.0 mph 3.0 mph 82% 0.00 in
20:03 56.5 °F 51.1 °F 29.99 in SSW 1.0 mph 3.0 mph 82% 0.00 in
20:08 56.5 °F 51.4 °F 29.99 in SSE 2.0 mph 3.0 mph 83% 0.00 in
20:13 56.3 °F 50.9 °F 29.98 in SSE 4.0 mph 4.0 mph 82% 0.00 in
20:18 55.9 °F 50.8 °F 29.98 in SSE 2.0 mph 3.0 mph 83% 0.00 in
20:23 55.6 °F 50.8 °F 29.99 in SSE 2.0 mph 4.0 mph 84% 0.00 in
20:28 55.4 °F 51.0 °F 29.98 in SSE 2.0 mph 3.0 mph 85% 0.00 in
20:33 55.4 °F 51.0 °F 29.99 in SSE 2.0 mph 3.0 mph 85% 0.00 in
20:38 55.2 °F 50.8 °F 29.98 in SSE 3.0 mph 3.0 mph 85% 0.00 in
20:43 54.6 °F 50.5 °F 29.98 in SSE 2.0 mph 4.0 mph 86% 0.00 in
20:49 54.6 °F 50.8 °F 29.98 in SSE 3.0 mph 4.0 mph 87% 0.00 in
20:54 54.6 °F 50.5 °F 29.99 in SSE 3.0 mph 4.0 mph 86% 0.00 in
20:58 54.6 °F 50.8 °F 29.98 in SSE 3.0 mph 5.0 mph 87% 0.00 in
21:03 54.8 °F 51.0 °F 29.98 in South 5.0 mph 5.0 mph 87% 0.00 in
21:09 55.1 °F 51.3 °F 29.98 in SE 3.0 mph 5.0 mph 87% 0.00 in
21:14 55.2 °F 51.4 °F 29.98 in SSE 7.0 mph 7.0 mph 87% 0.00 in
21:19 55.4 °F 51.6 °F 29.98 in SE 4.0 mph 6.0 mph 87% 0.00 in
21:24 55.4 °F 51.6 °F 29.98 in SE 4.0 mph 6.0 mph 87% 0.00 in
21:29 55.4 °F 51.6 °F 29.98 in SSE 4.0 mph 7.0 mph 87% 0.00 in
21:34 55.6 °F 51.8 °F 29.98 in South 3.0 mph 6.0 mph 87% 0.00 in
21:39 55.5 °F 51.7 °F 29.98 in SSE 5.0 mph 6.0 mph 87% 0.00 in
21:44 55.4 °F 51.6 °F 29.97 in SSE 5.0 mph 6.0 mph 87% 0.00 in
21:49 55.3 °F 51.5 °F 29.97 in SE 3.0 mph 7.0 mph 87% 0.00 in
21:54 55.3 °F 51.5 °F 29.98 in SSE 5.0 mph 5.0 mph 87% 0.00 in
21:59 55.3 °F 51.5 °F 29.98 in SSW 4.0 mph 5.0 mph 87% 0.00 in
22:04 55.3 °F 51.5 °F 29.98 in South 4.0 mph 5.0 mph 87% 0.00 in
22:09 55.2 °F 51.4 °F 29.98 in South 2.0 mph 4.0 mph 87% 0.00 in
22:14 55.2 °F 51.4 °F 29.98 in SSW 3.0 mph 4.0 mph 87% 0.00 in
22:19 55.0 °F 51.5 °F 29.98 in South 3.0 mph 5.0 mph 88% 0.00 in
22:24 54.9 °F 51.1 °F 29.98 in SW 2.0 mph 5.0 mph 87% 0.00 in
22:29 54.9 °F 51.4 °F 29.98 in SW 3.0 mph 5.0 mph 88% 0.00 in
22:34 54.9 °F 51.4 °F 29.98 in SE 2.0 mph 5.0 mph 88% 0.00 in
22:39 55.1 °F 51.6 °F 29.98 in SSW 4.0 mph 6.0 mph 88% 0.00 in
22:44 55.1 °F 51.6 °F 29.98 in SSE 4.0 mph 6.0 mph 88% 0.00 in
22:49 55.2 °F 51.7 °F 29.97 in SSE 6.0 mph 7.0 mph 88% 0.00 in
22:54 55.2 °F 51.7 °F 29.97 in SSE 3.0 mph 7.0 mph 88% 0.00 in
22:59 55.3 °F 51.8 °F 29.97 in SE 6.0 mph 7.0 mph 88% 0.00 in
23:04 55.1 °F 51.6 °F 29.97 in SSE 5.0 mph 6.0 mph 88% 0.00 in
23:09 54.9 °F 51.4 °F 29.97 in SSE 5.0 mph 7.0 mph 88% 0.00 in
23:14 54.8 °F 51.3 °F 29.97 in SSE 7.0 mph 8.0 mph 88% 0.00 in
23:19 54.6 °F 51.4 °F 29.97 in SE 6.0 mph 7.0 mph 89% 0.00 in
23:24 54.6 °F 51.4 °F 29.97 in SSE 5.0 mph 8.0 mph 89% 0.00 in
23:29 54.8 °F 51.6 °F 29.97 in South 2.0 mph 7.0 mph 89% 0.00 in
23:34 54.9 °F 51.7 °F 29.97 in SSE 5.0 mph 6.0 mph 89% 0.00 in
23:39 55.0 °F 51.8 °F 29.97 in South 4.0 mph 7.0 mph 89% 0.00 in
23:44 55.1 °F 51.6 °F 29.97 in South 2.0 mph 5.0 mph 88% 0.00 in
23:50 55.1 °F 51.6 °F 29.97 in South 3.0 mph 5.0 mph 88% 0.00 in
23:55 55.2 °F 51.7 °F 29.97 in South 5.0 mph 7.0 mph 88% 0.00 in
Compliments of Weather Underground